Regional Weather Roundup
Issued by NWS Austin/San Antonio, TX

Home | Current Version | Previous Version | Text Only | Print | Product List | Glossary On
Versions: 1 2 3 4 5 6 7 8 9 10 11 12 13 14 15 16 17 18 19 20 21 22 23 24 25 26 27 28 29 30 31 32 33 34 35 36 37 38 39 40 41 42 43 44 45 46 47 48 49 50
289
ASUS44 KEWX 231002
RWREWX
SOUTH TEXAS REGIONAL WEATHER ROUNDUP
NATIONAL WEATHER SERVICE AUSTIN/SAN ANTONIO TX
500 AM CDT WED AUG 23 2017

NOTE: "FAIR" INDICATED FEW OR NO CLOUDS BELOW 12,000 FEET WITH NO
SIGNIFICANT WEATHER AND/OR OBSTRUCTIONS TO VISIBILITY.

* - THESE STATIONS ARE NOT NWS OR FAA STATIONS...AND ARE NOT SUBJECT
    TO NWS AND FAA QUALITY CONTROL.

TXZ171-172-183>190-231100-
TEXAS HILL COUNTRY AND EDWARDS PLATEAU

CITY           SKY/WX    TMP DP  RH WIND       PRES   REMARKS
JUNCTION       PTCLDY    77  66  68 S6        30.04F
*LLANO         PTCLDY    75  66  73 CALM      30.05S
BURNET         PTCLDY    75  68  78 SW3       30.05R
*HORSESHOE BAY PTCLDY    77  68  74 NW3       30.03R
*KERRVILLE     PTCLDY    74  69  85 CALM      30.05S
*FREDERICKSBRG MOCLDY    71  65  81 NW5       30.06R
*ROCKSPRINGS   NOT AVBL
*BOERNE STAGE  CLEAR     68  64  88 CALM      30.05S
*CASTROVILLE   CLEAR     73  66  80 CALM      30.03S
HONDO          CLEAR     74  68  81 E3        30.01F
*UVALDE        CLEAR     73  67  80 CALM      30.02S
DEL RIO        CLEAR     80  67  64 E8        29.98F
LAUGHLIN AFB   PTCLDY    78  67  68 E6        29.99F
CARRIZO SPRGS  CLEAR     77  66  69 CALM      29.97S
*EAGLE PASS    SUNNY     77  66  69 E3        29.98F
$$

TXZ173-191>194-202-209-217>225-228-231100-
CENTRAL AND SOUTH CENTRAL TEXAS

CITY           SKY/WX    TMP DP  RH WIND       PRES   REMARKS
GEORGETOWN     CLEAR     79  70  74 S6        30.02S
AUSTIN/BERGSTM CLEAR     76  72  87 CALM      29.99S
AUSTIN/MABRY   CLEAR     78  71  79 CALM      30.01S
*AUSTIN/EXEC   CLEAR     73  72  94 CALM      30.01
*LAGO VISTA    CLEAR     78  69  74 SW6       30.03S
SAN MARCOS     CLEAR     75  71  87 SW3       30.01S
NEW BRAUNFELS  CLEAR     71  69  93 SW3       29.99S
RANDOLPH AFB   CLEAR     75  74  96 SW3       30.00F
PT SAN ANTONIO CLEAR     73  70  91 CALM      29.99F
SAN ANTONIO    CLEAR     76  70  82 W5        30.01F
STINSON FIELD  CLEAR     76  72  87 CALM      29.98F
*LA GRANGE     PTCLDY    75  74  95 CALM      29.97S
*GIDDINGS      PTCLDY    73  70  92 CALM      30.00S
*GONZALES      PTCLDY    73  73 100 CALM      29.98F
$$

TXZ163>164-176>182-195>201-210>213-226-227-235-231100-
SOUTHEAST TEXAS

CITY           SKY/WX    TMP DP  RH WIND       PRES   REMARKS
COLLEGE STN    PTCLDY    76  71  85 W3        29.98S
*BRYAN         PTCLDY    75  72  89 SW3       29.99F
*CALDWELL      NOT AVBL
*CROCKETT      PTCLDY    73  72  94 CALM      30.02S
*BRENHAM       PTCLDY    75  71  87 CALM      29.99S
HUNTSVILLE     CLEAR     77  70  79 CALM      29.99S
CONROE         CLEAR     73  71  93 CALM      29.99R
HOUSTON BUSH   PTCLDY    77  74  90 CALM      29.97F
HOUSTON HOBBY  PTCLDY    80  74  81 CALM      29.96F
*HOUSTON SW AP CLEAR     72  71  97 CALM      29.98S
PEARLAND       CLEAR     77  72  84 CALM      29.98F
HOUSTON HOOKS  CLEAR     75  73  93 CALM      29.98S
ELLINGTON FLD  PTCLDY    79  72  78 CALM      29.98F
SUGAR LAND     CLEAR     75  73  93 CALM      29.97S
*HOUSTON EXEC  PTCLDY    73  72  94 CALM      29.99S
*CLEVELAND MUN CLEAR     74  73  96 CALM      29.99S FOG
*WHARTON       CLEAR     72  70  93 CALM      29.98S
*COLUMBUS      FAIR      72  70  93 CALM      29.99F
*EAGLE LAKE    MOSUNNY   75  74  99 CALM      29.98S
$$

TXZ214>216-236>238-231100-
THE UPPER TEXAS COAST

CITY           SKY/WX    TMP DP  RH WIND       PRES   REMARKS
*ORANGE        CLEAR     77  77 100 N3        29.98S
PORT ARTHUR    CLEAR     77  75  93 NW5       29.96S
GALVESTON      CLEAR     83  77  82 CALM      29.97S HX  92
ANGLETON       CLEAR     74  73  97 CALM      29.97F
*BAY CITY      CLEAR     74  73  98 CALM      29.96F
PALACIOS       CLEAR     74  73  97 N3        29.95F
$$

TXZ229>234-239>247-231100-
TEXAS COASTAL BEND AND RIO GRANDE PLAINS

CITY           SKY/WX    TMP DP  RH WIND       PRES   REMARKS
VICTORIA       CLEAR     74  71  91 CALM      29.97F
*BEEVILLE      CLEAR    N/A N/A N/A CALM      29.97S HAZE
ROCKPORT       CLEAR     78  74  87 W3        29.95F
*PORT ARANSAS  PTCLDY    81  75  82 CALM      29.95F
*PORT LAVACA   CLEAR     74  71  91 NW5       29.97S
*INGLESIDE     CLEAR     79  75  88 MISG      29.95F
CORPUS CHRISTI PTCLDY    74  73  97 CALM      29.95F
CORPUS NAS     CLEAR     81  77  88 CALM      29.95F
*ROBSTOWN      PTCLDY    77  72  84 CALM      29.96F
ALICE          CLEAR     72  70  93 CALM      29.95F
KINGSVILLE NAS CLEAR     75  75 100 CALM      29.96S
COTULLA        CLEAR     76  70  82 E3        29.98S
*FAITH RANCH   PTCLDY    79  70  73 SE5       29.98S
LAREDO         CLEAR     79  72  79 SE7       29.97S
$$

TXZ248>255-231100-
DEEP SOUTH TEXAS

CITY           SKY/WX    TMP DP  RH WIND       PRES   REMARKS
BROWNSVILLE    CLEAR     77  77 100 NW3       29.94F
PORT ISABEL    CLEAR     79  76  90 NW3       29.94S
*SOUTH PADRE   NOT AVBL
HARLINGEN      CLEAR     76  74  93 N3        29.94S
*HEBBRONVILLE  CLEAR     72  69  91 CALM      29.98F
MCALLEN        CLEAR     79  73  82 CALM      29.95F
*WESLACO       CLEAR     76  73  90 CALM      29.94S
FALFURRIAS     CLEAR     73  71  94 CALM      29.95F
EDINBURG       CLEAR     78  72  84 CALM      29.95F
*ZAPATA        CLEAR     76  69  79 E3        29.96S
$$

TXZ213>215-236>238-242>244-246-247-251-254-255-231100-
CMAN STATIONS

STATION/POSITION TIME  TEMP    WIND        PRES    WAVE
                       AIR SEA DIR/SP/G            HT/PER
                 (UTC) (F)     (DEG/KT/KT) (MB)    (FT/S)
SABINE PASS      0924   82 89   30/  2/  3 1016.1
SEA RIM ST PARK  0900   83      CALM  /  1 1015.2
NORTH JETTY/GLS  0918      88  200/  2/  3 1014.2
EAGLE POINT      0924   80 89  300/  3/  4 1014.9
MORGANS POINT    0924   83 87  260/  5/  6 1014.7
MISSION/ARANSAS  0900          160/  7     1015.0
PORT O`CONNOR    0924   83     160/  7/  9 1014.2
PORT ARANSAS     0900   83 85  140/  6/  7 1014.7
MALAQUITE BEACH  0924   83 87   CALM  /  2 1013.8
BAFFIN BAY       0924   82 87              1014.5
PORT ISABEL      0924   81 85              1013.9
$$




USA.gov is the U.S. government's official web portal to all federal, state and local government web resources and services.